Погода в Издешкове

Россия / Смоленская область     55°08′36″N   33°37′21″E
темп.,
°C
ветер,
м/с
пор.,
м/с
влажн.,
%
обл.,
%
осадки,
мм/ч
давл.,
гПа
погр.,
м
24 июля, сб
сб2400:00+12с228412 0.0 101212
03:00+14сз1173100 0.0 101331
06:00+14ссз2372100 0.0 101374
09:00+18ссв34545 0.0 1014838
12:00+18ссв4447100 0.0 10151090
15:00+21ссв123890 0.0 10161695
18:00+21с2340100 0.0 10161338
21:00+14в2269100 0.0 101825
25 июля, вс
вс2500:00+15вюв226185 0.0 101934
03:00+15ю1162100 0.0 101919
06:00+15ю2266100 0.0 102044
09:00+18ююз3355100 0.0 1021294
12:00+23ю233810 0.0 10211868
15:00+22зюз234399 0.0 1021828
18:00+23сз223916 0.0 10211066
21:00+17вюв2259100 0.0 102211
26 июля, пн
пн2600:00+15ююв22659 0.0 102323
03:00+14ю2371100 0.0 102448
06:00+16юв1176100 0.0 102423
09:00+21ю345839 0.0 1024488
12:00+26ю323738 0.0 10242111
15:00+26ююв233759 0.0 10231997
18:00+25ююз33438 0.0 10221166
21:00+19ю33699 0.0 102343
27 июля, вт
вт2700:00+16ю22785 0.0 102430
03:00+15ю22845 0.0 102428
06:00+15ю24863 0.1 102473
09:00+22ююз35605 0.1 1023503
12:00+26ю45455 0.0 10221603
15:00+27ююз3542100 0.0 10211869
18:00+27ююз454474 0.0 10201481
21:00+21ю376734 0.0 1020135
28 июля, ср
ср2800:00+20ю396530 0.0 1020214
03:00+17ю397539 0.0 1019164
06:00+16ююв3107487 0.0 1018201
09:00+23ю5104998 0.0 1016660
12:00+23ю5954100 0.1 1015939
15:00+17юв51292100 2.6 1013452
18:00+19юв6148990 1.1 1011615
21:00+18ююв51099100 13.6 1008337